HALOSAT (43549 NORAD) Tracking and Keplerian Element Data

This shows tracking and keplerian element data for the satellite.

Feedback or suggestion? Click here.




ElementValue
Catalog43549
NameHALOSAT
Epoch Orbit521
Epoch Day230.49803146
Epoch Year2018
RAAN67.9582
Inclination51.6435
Eccentricity0.0007096
Argument of Perigee81.7032
Mean Anonmoly278.478
Mean Motion15.54925231
Decay Rate9.422E-05
L11 43549U 98067NX 18230.49803146 .00009422 00000-0 14510-3 0 9995
L22 43549 51.6435 67.9582 0007096 81.7032 278.4780 15.54925231 5212

Live tracking and technical data element details for HALOSAT (NORAD 43549). HALOSAT can be tracked NOW for your location showing map with azimuth and elevation plus other details from your city location.

Track the satellite on the map from your city or location and see movement details for azimuth, elevation, latitude, longitude, range, height, and movement on the map or in text.







IsCatalogInMostPopularTable: catalog: 43549, numindb: 12
Update: records affected: 1



GetName: 43549 HALOSAT

Hit Count: updated at: Mon, 20 Aug 2018 00:43:26 GMT